Time,TemperatureF,DewpointF,PressureIn,WindDirection,WindDirectionDegrees,WindSpeedMPH,WindSpeedGustMPH,Humidity,HourlyPrecipIn,Conditions,Clouds,dailyrainin,SoftwareType,DateUTC
2013-05-27 00:01:00,73.8,66.2,29.86,South,173,3.0,12.0,77,0.00,CLR,SKC,0.00,WeatherDisplay:10.37,2013-05-27 05:01:00,
2013-05-27 00:06:00,73.6,66.0,29.86,South,170,2.0,10.0,77,0.00,CLR,SKC,0.00,WeatherDisplay:10.37,2013-05-27 05:06:00,
2013-05-27 00:11:00,73.5,65.9,29.86,SSW,195,2.0,10.0,77,0.00,CLR,SKC,0.00,WeatherDisplay:10.37,2013-05-27 05:11:00,
2013-05-27 00:21:00,73.4,66.1,29.87,SSW,198,1.0,3.0,78,0.00,CLR,SKC,0.00,WeatherDisplay:10.37,2013-05-27 05:21:00,
2013-05-27 00:26:00,73.3,66.0,29.87,South,170,5.0,10.0,78,0.00,CLR,SKC,0.00,WeatherDisplay:10.37,2013-05-27 05:26:00,
2013-05-27 00:31:00,73.2,65.9,29.86,SSE,156,0.0,7.0,78,0.00,CLR,SKC,0.00,WeatherDisplay:10.37,2013-05-27 05:31:00,
2013-05-27 00:41:00,72.9,66.0,29.87,SSE,168,0.0,2.0,79,0.00,CLR,SKC,0.00,WeatherDisplay:10.37,2013-05-27 05:41:00,
2013-05-27 00:51:00,72.5,66.0,29.87,SSE,155,1.0,5.0,80,0.00,CLR,SKC,0.00,WeatherDisplay:10.37,2013-05-27 05:51:00,
2013-05-27 01:01:00,72.1,66.0,29.88,SSE,154,1.0,7.0,81,0.00,CLR,SKC,0.00,WeatherDisplay:10.37,2013-05-27 06:01:00,
2013-05-27 01:06:00,72.0,65.9,29.88,SSE,150,2.0,8.0,81,0.00,CLR,SKC,0.00,WeatherDisplay:10.37,2013-05-27 06:06:00,
2013-05-27 01:11:00,71.9,65.8,29.88,SE,141,1.0,3.0,81,0.00,CLR,SKC,0.00,WeatherDisplay:10.37,2013-05-27 06:11:00,
2013-05-27 01:21:00,71.7,65.9,29.88,SE,139,0.0,5.0,82,0.00,CLR,SKC,0.00,WeatherDisplay:10.37,2013-05-27 06:21:00,
2013-05-27 01:31:00,71.6,65.8,29.89,SE,136,1.0,7.0,82,0.00,CLR,SKC,0.00,WeatherDisplay:10.37,2013-05-27 06:31:00,
2013-05-27 01:36:00,71.6,65.8,29.89,SE,139,1.0,7.0,82,0.00,CLR,SKC,0.00,WeatherDisplay:10.37,2013-05-27 06:36:00,
2013-05-27 01:41:00,71.6,65.8,29.89,SE,138,3.0,7.0,82,0.00,CLR,SKC,0.00,WeatherDisplay:10.37,2013-05-27 06:41:00,
2013-05-27 01:51:00,71.6,65.9,29.89,SE,142,1.0,5.0,82,0.00,CLR,SKC,0.00,WeatherDisplay:10.37,2013-05-27 06:51:00,
2013-05-27 01:56:00,71.7,65.9,29.88,SSE,150,1.0,7.0,82,0.00,CLR,SKC,0.00,WeatherDisplay:10.37,2013-05-27 06:56:00,
2013-05-27 02:01:00,71.8,66.0,29.88,SSE,148,3.0,8.0,82,0.00,CLR,SKC,0.00,WeatherDisplay:10.37,2013-05-27 07:01:00,
2013-05-27 02:06:00,71.8,65.7,29.88,SSE,156,6.0,10.0,81,0.00,CLR,SKC,0.00,WeatherDisplay:10.37,2013-05-27 07:06:00,
2013-05-27 02:11:00,71.9,65.8,29.88,SSE,153,5.0,8.0,81,0.00,CLR,SKC,0.00,WeatherDisplay:10.37,2013-05-27 07:11:00,
2013-05-27 02:21:00,71.7,65.6,29.88,SSE,149,3.0,10.0,81,0.00,CLR,SKC,0.00,WeatherDisplay:10.37,2013-05-27 07:21:00,
2013-05-27 02:31:00,71.4,65.3,29.87,SE,127,3.0,10.0,81,0.00,CLR,SKC,0.00,WeatherDisplay:10.37,2013-05-27 07:31:00,
2013-05-27 02:36:00,71.3,65.5,29.87,SSE,150,2.0,12.0,82,0.00,CLR,SKC,0.00,WeatherDisplay:10.37,2013-05-27 07:36:00,
2013-05-27 02:41:00,71.2,65.4,29.87,South,170,2.0,5.0,82,0.00,CLR,SKC,0.00,WeatherDisplay:10.37,2013-05-27 07:41:00,
2013-05-27 02:51:00,70.9,65.2,29.87,SSE,152,5.0,10.0,82,0.00,CLR,SKC,0.00,WeatherDisplay:10.37,2013-05-27 07:51:00,
2013-05-27 02:56:00,70.8,65.4,29.87,SSE,161,3.0,9.0,83,0.00,CLR,SKC,0.00,WeatherDisplay:10.37,2013-05-27 07:56:00,
2013-05-27 03:01:00,70.6,65.2,29.86,SSE,163,2.0,8.0,83,0.00,CLR,SKC,0.00,WeatherDisplay:10.37,2013-05-27 08:01:00,
2013-05-27 03:06:00,70.5,65.1,29.86,SSE,158,6.0,11.0,83,0.00,CLR,SKC,0.00,WeatherDisplay:10.37,2013-05-27 08:06:00,
2013-05-27 03:11:00,70.5,65.1,29.86,SSE,166,5.0,11.0,83,0.00,CLR,SKC,0.00,WeatherDisplay:10.37,2013-05-27 08:11:00,
2013-05-27 03:21:00,70.6,65.2,29.85,SSE,167,6.0,10.0,83,0.00,CLR,SKC,0.00,WeatherDisplay:10.37,2013-05-27 08:21:00,
2013-05-27 03:26:00,70.6,65.2,29.85,SSE,156,3.0,11.0,83,0.00,CLR,SKC,0.00,WeatherDisplay:10.37,2013-05-27 08:26:00,
2013-05-27 03:31:00,70.7,65.3,29.85,SSE,162,2.0,10.0,83,0.00,CLR,SKC,0.00,WeatherDisplay:10.37,2013-05-27 08:31:00,
2013-05-27 03:41:00,70.8,65.4,29.84,SSE,150,7.0,10.0,83,0.00,CLR,SKC,0.00,WeatherDisplay:10.37,2013-05-27 08:41:00,
2013-05-27 03:51:00,70.9,65.1,29.84,SSE,166,2.0,8.0,82,0.00,CLR,SKC,0.00,WeatherDisplay:10.37,2013-05-27 08:51:00,
2013-05-27 04:01:00,70.9,65.1,29.83,SSE,164,3.0,11.0,82,0.00,CLR,SKC,0.00,WeatherDisplay:10.37,2013-05-27 09:01:00,
2013-05-27 04:06:00,70.8,65.1,29.83,SSE,161,3.0,8.0,82,0.00,CLR,SKC,0.00,WeatherDisplay:10.37,2013-05-27 09:06:00,
2013-05-27 04:11:00,70.6,64.9,29.83,SSE,155,2.0,12.0,82,0.00,CLR,SKC,0.00,WeatherDisplay:10.37,2013-05-27 09:11:00,
2013-05-27 04:21:00,70.6,64.8,29.82,SSE,161,3.0,15.0,82,0.00,CLR,SKC,0.00,WeatherDisplay:10.37,2013-05-27 09:21:00,
2013-05-27 04:31:00,70.5,64.8,29.82,South,187,5.0,10.0,82,0.00,CLR,SKC,0.00,WeatherDisplay:10.37,2013-05-27 09:31:00,
2013-05-27 04:41:00,70.5,64.8,29.82,South,178,6.0,13.0,82,0.00,CLR,SKC,0.00,WeatherDisplay:10.37,2013-05-27 09:41:00,
2013-05-27 04:51:00,70.7,65.0,29.81,South,170,2.0,10.0,82,0.00,CLR,SKC,0.00,WeatherDisplay:10.37,2013-05-27 09:51:00,
2013-05-27 04:56:00,70.8,65.1,29.81,South,169,5.0,13.0,82,0.00,CLR,SKC,0.00,WeatherDisplay:10.37,2013-05-27 09:56:00,
2013-05-27 05:01:00,70.8,65.1,29.81,SSE,151,6.0,10.0,82,0.00,CLR,SKC,0.00,WeatherDisplay:10.37,2013-05-27 10:01:00,
2013-05-27 05:06:00,70.8,65.1,29.81,SSE,155,5.0,10.0,82,0.00,CLR,SKC,0.00,WeatherDisplay:10.37,2013-05-27 10:06:00,
2013-05-27 05:11:00,70.8,64.7,29.81,SSE,155,5.0,12.0,81,0.00,CLR,SKC,0.00,WeatherDisplay:10.37,2013-05-27 10:11:00,
2013-05-27 05:16:00,70.7,64.6,29.81,SE,145,2.0,12.0,81,0.00,CLR,SKC,0.00,WeatherDisplay:10.37,2013-05-27 10:16:00,
2013-05-27 05:21:00,70.7,64.5,29.80,SSE,154,5.0,12.0,81,0.00,CLR,SKC,0.00,WeatherDisplay:10.37,2013-05-27 10:21:00,
2013-05-27 05:31:00,70.7,64.5,29.80,South,169,7.0,16.0,81,0.00,CLR,SKC,0.00,WeatherDisplay:10.37,2013-05-27 10:31:00,
2013-05-27 05:36:00,70.7,64.2,29.80,South,179,6.0,12.0,80,0.00,CLR,SKC,0.00,WeatherDisplay:10.37,2013-05-27 10:36:00,
2013-05-27 05:41:00,70.6,64.1,29.79,South,172,7.0,13.0,80,0.00,CLR,SKC,0.00,WeatherDisplay:10.37,2013-05-27 10:41:00,
2013-05-27 05:51:00,70.6,64.1,29.78,South,175,8.0,18.0,80,0.00,CLR,SKC,0.00,WeatherDisplay:10.37,2013-05-27 10:51:00,
2013-05-27 05:56:00,70.6,64.1,29.78,South,173,5.0,15.0,80,0.00,CLR,SKC,0.00,WeatherDisplay:10.37,2013-05-27 10:56:00,
2013-05-27 06:01:00,70.5,64.1,29.78,South,184,7.0,13.0,80,0.00,CLR,SKC,0.00,WeatherDisplay:10.37,2013-05-27 11:01:00,
2013-05-27 06:06:00,70.5,64.0,29.78,South,185,9.0,19.0,80,0.00,CLR,SKC,0.00,WeatherDisplay:10.37,2013-05-27 11:06:00,
2013-05-27 06:11:00,70.5,64.0,29.77,SSE,157,7.0,22.0,80,0.00,CLR,SKC,0.00,WeatherDisplay:10.37,2013-05-27 11:11:00,
2013-05-27 06:21:00,70.5,64.0,29.78,South,183,7.0,18.0,80,0.00,CLR,SKC,0.00,WeatherDisplay:10.37,2013-05-27 11:21:00,
2013-05-27 06:26:00,70.5,64.4,29.78,SSE,166,7.0,21.0,81,0.00,CLR,SKC,0.00,WeatherDisplay:10.37,2013-05-27 11:26:00,
2013-05-27 06:31:00,70.4,64.3,29.78,SSE,167,5.0,15.0,81,0.00,CLR,SKC,0.00,WeatherDisplay:10.37,2013-05-27 11:31:00,
2013-05-27 06:41:00,70.4,64.3,29.78,South,187,1.0,15.0,81,0.00,CLR,SKC,0.00,WeatherDisplay:10.37,2013-05-27 11:41:00,
2013-05-27 06:51:00,70.3,64.6,29.78,SSE,167,8.0,21.0,82,0.00,CLR,SKC,0.00,WeatherDisplay:10.37,2013-05-27 11:51:00,
2013-05-27 07:01:00,70.3,64.6,29.77,South,186,8.0,18.0,82,0.00,CLR,SKC,0.00,WeatherDisplay:10.37,2013-05-27 12:01:00,
2013-05-27 07:06:00,70.3,64.6,29.77,South,179,5.0,12.0,82,0.00,CLR,SKC,0.00,WeatherDisplay:10.37,2013-05-27 12:06:00,
2013-05-27 07:11:00,70.3,64.9,29.77,South,186,3.0,13.0,83,0.00,CLR,SKC,0.00,WeatherDisplay:10.37,2013-05-27 12:11:00,
2013-05-27 07:21:00,70.4,65.0,29.76,SSW,205,10.0,18.0,83,0.00,CLR,SKC,0.00,WeatherDisplay:10.37,2013-05-27 12:21:00,
2013-05-27 07:31:00,70.4,65.4,29.76,SSW,199,7.0,16.0,84,0.00,CLR,SKC,0.00,WeatherDisplay:10.37,2013-05-27 12:31:00,
2013-05-27 07:41:00,70.4,65.4,29.76,South,189,7.0,12.0,84,0.00,CLR,SKC,0.00,WeatherDisplay:10.37,2013-05-27 12:41:00,
2013-05-27 07:51:00,70.4,65.4,29.76,SSW,197,5.0,11.0,84,0.00,CLR,SKC,0.00,WeatherDisplay:10.37,2013-05-27 12:51:00,
2013-05-27 07:56:00,70.4,65.7,29.77,South,183,0.0,5.0,85,0.00,CLR,SKC,0.00,WeatherDisplay:10.37,2013-05-27 12:56:00,
2013-05-27 08:06:00,70.4,65.7,29.80,NNW,346,2.0,5.0,85,0.00,CLR,SKC,0.00,WeatherDisplay:10.37,2013-05-27 13:06:00,
2013-05-27 08:11:00,70.4,65.7,29.81,NNW,348,9.0,15.0,85,0.00,CLR,SKC,0.00,WeatherDisplay:10.37,2013-05-27 13:11:00,
2013-05-27 08:21:00,67.4,62.3,29.81,NNW,340,12.0,29.0,84,0.00,CLR,SKC,0.00,WeatherDisplay:10.37,2013-05-27 13:21:00,
2013-05-27 08:31:00,65.0,62.0,29.80,NW,326,14.0,18.0,90,0.06,RA,SKC,0.09,WeatherDisplay:10.37,2013-05-27 13:31:00,
2013-05-27 08:41:00,64.2,62.1,29.82,NE,53,5.0,5.0,93,0.03,RA,SKC,0.15,WeatherDisplay:10.37,2013-05-27 13:41:00,
2013-05-27 08:46:00,64.0,62.2,29.78,ENE,74,10.0,18.0,94,0.02,RA,SKC,0.17,WeatherDisplay:10.37,2013-05-27 13:46:00,
2013-05-27 08:51:00,64.0,62.3,29.80,NNE,13,17.0,22.0,94,0.01,RA,SKC,0.18,WeatherDisplay:10.37,2013-05-27 13:51:00,
2013-05-27 09:01:00,64.2,62.8,29.82,North,11,14.0,19.0,95,0.05,RA,SKC,0.25,WeatherDisplay:10.37,2013-05-27 14:01:00,
2013-05-27 09:06:00,64.2,62.7,29.79,NNE,18,14.0,27.0,95,0.05,RA,SKC,0.30,WeatherDisplay:10.37,2013-05-27 14:06:00,
2013-05-27 09:11:00,64.1,62.7,29.77,NNE,33,5.0,20.0,95,0.06,RA,SKC,0.35,WeatherDisplay:10.37,2013-05-27 14:11:00,
2013-05-27 09:21:00,63.9,62.8,29.79,NNE,33,12.0,19.0,96,0.09,RA,SKC,0.50,WeatherDisplay:10.37,2013-05-27 14:21:00,
2013-05-27 09:31:00,63.9,62.7,29.82,NNE,24,12.0,24.0,96,0.12,RA,SKC,0.76,WeatherDisplay:10.37,2013-05-27 14:31:00,
2013-05-27 09:41:00,63.8,62.9,29.81,ENE,61,10.0,26.0,97,0.15,RA,SKC,1.09,WeatherDisplay:10.37,2013-05-27 14:41:00,
2013-05-27 09:51:00,63.8,63.0,29.83,NNE,15,6.0,12.0,97,0.01,RA,SKC,1.15,WeatherDisplay:10.37,2013-05-27 14:51:00,
2013-05-27 09:56:00,63.9,63.1,29.81,NNE,29,9.0,19.0,97,0.01,RA,SKC,1.16,WeatherDisplay:10.37,2013-05-27 14:56:00,
2013-05-27 10:06:00,64.0,63.1,29.83,NNE,12,10.0,18.0,97,0.00,RA,SKC,1.17,WeatherDisplay:10.37,2013-05-27 15:06:00,
2013-05-27 10:11:00,64.0,63.2,29.84,North,8,6.0,13.0,97,0.01,RA,SKC,1.18,WeatherDisplay:10.37,2013-05-27 15:11:00,
2013-05-27 10:21:00,64.2,63.3,29.82,NE,43,7.0,13.0,97,0.04,RA,SKC,1.24,WeatherDisplay:10.37,2013-05-27 15:21:00,
2013-05-27 10:31:00,64.1,63.3,29.84,NNE,30,13.0,17.0,97,0.01,RA,SKC,1.26,WeatherDisplay:10.37,2013-05-27 15:31:00,
2013-05-27 10:41:00,63.7,62.9,29.83,NNE,27,6.0,15.0,97,0.32,RA,SKC,1.66,WeatherDisplay:10.37,2013-05-27 15:41:00,
2013-05-27 10:46:00,63.3,62.4,29.83,ENE,57,2.0,13.0,97,0.11,RA,SKC,1.77,WeatherDisplay:10.37,2013-05-27 15:46:00,
2013-05-27 10:51:00,63.2,62.3,29.85,East,88,2.0,14.0,97,0.05,RA,SKC,1.82,WeatherDisplay:10.37,2013-05-27 15:51:00,
2013-05-27 10:56:00,63.2,62.3,29.85,SE,133,5.0,8.0,97,0.03,RA,SKC,1.84,WeatherDisplay:10.37,2013-05-27 15:56:00,
2013-05-27 11:01:00,63.1,62.3,29.83,East,99,5.0,16.0,97,0.01,RA,SKC,1.86,WeatherDisplay:10.37,2013-05-27 16:01:00,
2013-05-27 11:06:00,63.1,62.8,29.84,NNE,20,7.0,18.0,99,0.08,RA,SKC,1.93,WeatherDisplay:10.37,2013-05-27 16:06:00,
2013-05-27 11:11:00,63.0,63.0,29.85,NE,36,1.0,18.0,100,0.02,RA,SKC,1.95,WeatherDisplay:10.37,2013-05-27 16:11:00,
2013-05-27 11:16:00,63.0,63.0,29.87,ENE,60,1.0,7.0,100,0.01,RA,SKC,1.96,WeatherDisplay:10.37,2013-05-27 16:16:00,
2013-05-27 11:21:00,63.0,63.0,29.86,East,100,0.0,5.0,100,0.03,RA,SKC,1.99,WeatherDisplay:10.37,2013-05-27 16:21:00,
2013-05-27 11:26:00,63.0,63.0,29.85,ENE,61,2.0,11.0,100,0.02,RA,SKC,2.01,WeatherDisplay:10.37,2013-05-27 16:26:00,
2013-05-27 11:31:00,63.0,63.0,29.86,NNE,31,3.0,12.0,100,0.01,RA,SKC,2.02,WeatherDisplay:10.37,2013-05-27 16:31:00,
2013-05-27 11:41:00,63.0,63.0,29.86,NE,51,0.0,5.0,100,0.01,RA,SKC,2.03,WeatherDisplay:10.37,2013-05-27 16:41:00,
2013-05-27 11:51:00,62.9,62.9,29.83,NE,49,0.0,8.0,100,0.00,RA,SKC,2.04,WeatherDisplay:10.37,2013-05-27 16:51:00,
2013-05-27 12:01:00,62.9,62.9,29.83,NE,36,0.0,10.0,100,0.00,RA,SKC,2.05,WeatherDisplay:10.37,2013-05-27 17:01:00,
2013-05-27 12:06:00,62.9,62.9,29.84,SE,132,2.0,5.0,100,0.00,CLR,SKC,2.05,WeatherDisplay:10.37,2013-05-27 17:06:00,
2013-05-27 12:11:00,63.0,63.0,29.84,ENE,71,1.0,10.0,100,0.00,CLR,SKC,2.05,WeatherDisplay:10.37,2013-05-27 17:11:00,
2013-05-27 12:21:00,62.9,62.9,29.85,SSE,155,2.0,10.0,100,0.00,CLR,SKC,2.05,WeatherDisplay:10.37,2013-05-27 17:21:00,
2013-05-27 12:31:00,63.0,63.0,29.83,ENE,75,5.0,12.0,100,0.00,CLR,SKC,2.05,WeatherDisplay:10.37,2013-05-27 17:31:00,
2013-05-27 12:41:00,63.5,63.5,29.81,ESE,123,6.0,12.0,100,0.00,CLR,SKC,2.05,WeatherDisplay:10.37,2013-05-27 17:41:00,
2013-05-27 12:51:00,63.6,63.6,29.79,ESE,105,3.0,15.0,100,0.00,CLR,SKC,2.05,WeatherDisplay:10.37,2013-05-27 17:51:00,
2013-05-27 13:01:00,63.7,63.7,29.79,SSE,159,8.0,20.0,100,0.00,CLR,SKC,2.05,WeatherDisplay:10.37,2013-05-27 18:01:00,
2013-05-27 13:11:00,64.0,64.0,29.78,SSE,155,5.0,20.0,100,0.00,CLR,SKC,2.05,WeatherDisplay:10.37,2013-05-27 18:11:00,
2013-05-27 13:21:00,64.3,64.3,29.77,ESE,112,9.0,18.0,100,0.00,CLR,SKC,2.05,WeatherDisplay:10.37,2013-05-27 18:21:00,
2013-05-27 13:26:00,64.5,64.5,29.76,ESE,119,7.0,21.0,100,0.00,CLR,SKC,2.05,WeatherDisplay:10.37,2013-05-27 18:26:00,
2013-05-27 13:31:00,64.8,64.8,29.76,East,99,6.0,24.0,100,0.00,CLR,SKC,2.05,WeatherDisplay:10.37,2013-05-27 18:31:00,
2013-05-27 13:41:00,65.7,65.4,29.75,SSE,160,12.0,21.0,99,0.00,CLR,SKC,2.05,WeatherDisplay:10.37,2013-05-27 18:41:00,
2013-05-27 13:51:00,66.9,65.8,29.75,SE,143,9.0,18.0,96,0.00,CLR,SKC,2.05,WeatherDisplay:10.37,2013-05-27 18:51:00,
2013-05-27 13:56:00,67.3,65.9,29.75,SSE,149,14.0,28.0,95,0.00,CLR,SKC,2.05,WeatherDisplay:10.37,2013-05-27 18:56:00,
2013-05-27 14:06:00,67.9,65.8,29.74,SSE,166,10.0,28.0,93,0.00,CLR,SKC,2.05,WeatherDisplay:10.37,2013-05-27 19:06:00,
2013-05-27 14:11:00,68.4,66.3,29.74,SSE,163,8.0,21.0,93,0.00,CLR,SKC,2.05,WeatherDisplay:10.37,2013-05-27 19:11:00,
2013-05-27 14:21:00,69.4,66.3,29.73,SE,140,7.0,16.0,90,0.00,CLR,SKC,2.05,WeatherDisplay:10.37,2013-05-27 19:21:00,
2013-05-27 14:31:00,70.3,66.9,29.73,SSE,147,8.0,22.0,89,0.00,CLR,SKC,2.05,WeatherDisplay:10.37,2013-05-27 19:31:00,
2013-05-27 14:36:00,70.6,66.9,29.72,SSE,147,8.0,15.0,88,0.00,CLR,SKC,2.05,WeatherDisplay:10.37,2013-05-27 19:36:00,
2013-05-27 14:41:00,70.8,66.4,29.71,SE,124,6.0,20.0,86,0.00,CLR,SKC,2.05,WeatherDisplay:10.37,2013-05-27 19:41:00,
2013-05-27 14:51:00,72.0,67.3,29.70,SSE,154,10.0,21.0,85,0.00,CLR,SKC,2.05,WeatherDisplay:10.37,2013-05-27 19:51:00,
2013-05-27 15:01:00,73.8,68.3,29.69,SE,129,7.0,13.0,83,0.00,CLR,SKC,2.05,WeatherDisplay:10.37,2013-05-27 20:01:00,
2013-05-27 15:06:00,74.6,68.8,29.69,SE,135,7.0,19.0,82,0.00,CLR,SKC,2.05,WeatherDisplay:10.37,2013-05-27 20:06:00,
2013-05-27 15:11:00,75.4,69.6,29.69,South,170,5.0,16.0,82,0.00,CLR,SKC,2.05,WeatherDisplay:10.37,2013-05-27 20:11:00,
2013-05-27 15:16:00,76.0,70.1,29.68,SSE,152,7.0,21.0,82,0.00,CLR,SKC,2.05,WeatherDisplay:10.37,2013-05-27 20:16:00,
2013-05-27 15:21:00,76.6,70.3,29.69,SSE,156,7.0,20.0,81,0.00,CLR,SKC,2.05,WeatherDisplay:10.37,2013-05-27 20:21:00,
2013-05-27 15:26:00,77.0,70.0,29.69,South,183,7.0,19.0,79,0.00,CLR,SKC,2.05,WeatherDisplay:10.37,2013-05-27 20:26:00,
2013-05-27 15:31:00,77.3,70.7,29.69,South,188,8.0,21.0,80,0.00,CLR,SKC,2.05,WeatherDisplay:10.37,2013-05-27 20:31:00,
2013-05-27 15:41:00,77.7,71.1,29.69,SSW,208,5.0,21.0,80,0.00,CLR,SKC,2.05,WeatherDisplay:10.37,2013-05-27 20:41:00,
2013-05-27 15:46:00,77.6,70.6,29.68,South,172,7.0,19.0,79,0.00,CLR,SKC,2.05,WeatherDisplay:10.37,2013-05-27 20:46:00,
2013-05-27 15:51:00,77.8,70.7,29.68,SSE,163,9.0,26.0,79,0.00,CLR,SKC,2.05,WeatherDisplay:10.37,2013-05-27 20:51:00,
2013-05-27 16:01:00,77.7,70.7,29.67,SSE,168,9.0,24.0,79,0.00,CLR,SKC,2.05,WeatherDisplay:10.37,2013-05-27 21:01:00,
2013-05-27 16:06:00,77.8,70.7,29.67,SSE,168,9.0,17.0,79,0.00,CLR,SKC,2.05,WeatherDisplay:10.37,2013-05-27 21:06:00,
2013-05-27 16:11:00,77.6,70.5,29.66,SSE,167,7.0,24.0,79,0.00,CLR,SKC,2.05,WeatherDisplay:10.37,2013-05-27 21:11:00,
2013-05-27 16:21:00,77.2,70.5,29.66,South,183,8.0,19.0,80,0.00,CLR,SKC,2.05,WeatherDisplay:10.37,2013-05-27 21:21:00,
2013-05-27 16:31:00,77.2,70.9,29.66,South,172,10.0,20.0,81,0.00,CLR,SKC,2.05,WeatherDisplay:10.37,2013-05-27 21:31:00,
2013-05-27 16:41:00,77.3,70.7,29.65,SSW,199,10.0,19.0,80,0.00,CLR,SKC,2.05,WeatherDisplay:10.37,2013-05-27 21:41:00,
2013-05-27 16:51:00,77.9,71.2,29.65,SSW,196,9.0,20.0,80,0.00,CLR,SKC,2.05,WeatherDisplay:10.37,2013-05-27 21:51:00,
2013-05-27 17:01:00,78.4,71.3,29.65,SSW,203,6.0,12.0,79,0.00,CLR,SKC,2.05,WeatherDisplay:10.37,2013-05-27 22:01:00,
2013-05-27 17:06:00,78.8,71.7,29.64,SSW,203,12.0,20.0,79,0.00,CLR,SKC,2.05,WeatherDisplay:10.37,2013-05-27 22:06:00,
2013-05-27 17:11:00,79.2,71.7,29.64,SSW,193,9.0,16.0,78,0.00,CLR,SKC,2.05,WeatherDisplay:10.37,2013-05-27 22:11:00,
2013-05-27 17:21:00,79.9,72.1,29.64,South,189,9.0,19.0,77,0.00,CLR,SKC,2.05,WeatherDisplay:10.37,2013-05-27 22:21:00,
2013-05-27 17:31:00,80.3,72.8,29.63,South,188,5.0,15.0,78,0.00,CLR,SKC,2.05,WeatherDisplay:10.37,2013-05-27 22:31:00,
2013-05-27 17:41:00,81.3,72.2,29.64,SSW,208,5.0,22.0,74,0.00,CLR,SKC,2.05,WeatherDisplay:10.37,2013-05-27 22:41:00,
2013-05-27 17:51:00,81.7,70.1,29.64,SSW,203,6.0,21.0,68,0.00,CLR,SKC,2.05,WeatherDisplay:10.37,2013-05-27 22:51:00,
2013-05-27 18:01:00,81.7,70.6,29.63,SW,223,6.0,16.0,69,0.00,CLR,SKC,2.05,WeatherDisplay:10.37,2013-05-27 23:01:00,
2013-05-27 18:06:00,81.6,70.5,29.63,WSW,252,7.0,21.0,69,0.00,CLR,SKC,2.05,WeatherDisplay:10.37,2013-05-27 23:06:00,
2013-05-27 18:11:00,81.5,69.9,29.63,SW,217,15.0,29.0,68,0.00,CLR,SKC,2.05,WeatherDisplay:10.37,2013-05-27 23:11:00,
2013-05-27 18:21:00,81.3,70.2,29.64,SW,233,12.0,29.0,69,0.00,CLR,SKC,2.05,WeatherDisplay:10.37,2013-05-27 23:21:00,
2013-05-27 18:31:00,80.9,69.8,29.64,SW,214,13.0,24.0,69,0.00,CLR,SKC,2.05,WeatherDisplay:10.37,2013-05-27 23:31:00,
2013-05-27 18:41:00,80.5,70.2,29.64,SW,219,6.0,15.0,71,0.00,CLR,SKC,2.05,WeatherDisplay:10.37,2013-05-27 23:41:00,
2013-05-27 18:46:00,80.3,70.1,29.64,SSW,198,9.0,16.0,71,0.00,CLR,SKC,2.05,WeatherDisplay:10.37,2013-05-27 23:46:00,
2013-05-27 18:51:00,80.1,70.3,29.64,SSW,208,7.0,16.0,72,0.00,CLR,SKC,2.05,WeatherDisplay:10.37,2013-05-27 23:51:00,
2013-05-27 19:01:00,80.1,69.9,29.64,South,181,7.0,21.0,71,0.00,CLR,SKC,2.05,WeatherDisplay:10.37,2013-05-28 00:01:00,
2013-05-27 19:06:00,80.1,69.9,29.64,SW,218,5.0,16.0,71,0.00,CLR,SKC,2.05,WeatherDisplay:10.37,2013-05-28 00:06:00,
2013-05-27 19:11:00,80.1,69.9,29.64,SSW,212,3.0,15.0,71,0.00,CLR,SKC,2.05,WeatherDisplay:10.37,2013-05-28 00:11:00,
2013-05-27 19:21:00,79.9,70.0,29.64,SSW,197,8.0,18.0,72,0.00,CLR,SKC,2.05,WeatherDisplay:10.37,2013-05-28 00:21:00,
2013-05-27 19:31:00,79.6,69.7,29.64,SSW,211,10.0,26.0,72,0.00,CLR,SKC,2.05,WeatherDisplay:10.37,2013-05-28 00:31:00,
2013-05-27 19:41:00,79.5,69.7,29.65,SSW,205,7.0,15.0,72,0.00,CLR,SKC,2.05,WeatherDisplay:10.37,2013-05-28 00:41:00,
2013-05-27 19:51:00,79.3,69.9,29.65,SW,220,3.0,10.0,73,0.00,CLR,SKC,2.05,WeatherDisplay:10.37,2013-05-28 00:51:00,
2013-05-27 20:01:00,79.1,69.7,29.65,South,175,3.0,13.0,73,0.00,CLR,SKC,2.05,WeatherDisplay:10.37,2013-05-28 01:01:00,
2013-05-27 20:06:00,79.0,69.6,29.65,South,174,8.0,18.0,73,0.00,CLR,SKC,2.05,WeatherDisplay:10.37,2013-05-28 01:06:00,
2013-05-27 20:11:00,79.0,69.6,29.66,SSW,193,7.0,13.0,73,0.00,CLR,SKC,2.05,WeatherDisplay:10.37,2013-05-28 01:11:00,
2013-05-27 20:16:00,78.9,69.9,29.66,SSW,197,7.0,13.0,74,0.00,CLR,SKC,2.05,WeatherDisplay:10.37,2013-05-28 01:16:00,
2013-05-27 20:21:00,78.8,69.9,29.65,SSW,192,5.0,13.0,74,0.00,CLR,SKC,2.05,WeatherDisplay:10.37,2013-05-28 01:21:00,
2013-05-27 20:31:00,78.6,69.7,29.65,SSW,209,5.0,13.0,74,0.00,CLR,SKC,2.05,WeatherDisplay:10.37,2013-05-28 01:31:00,
2013-05-27 20:41:00,78.6,69.6,29.65,South,188,2.0,20.0,74,0.00,CLR,SKC,2.05,WeatherDisplay:10.37,2013-05-28 01:41:00,
2013-05-27 20:46:00,78.5,69.9,29.65,SSW,195,7.0,16.0,75,0.00,CLR,SKC,2.05,WeatherDisplay:10.37,2013-05-28 01:46:00,
2013-05-27 20:51:00,78.5,69.5,29.64,SSW,203,8.0,20.0,74,0.00,CLR,SKC,2.05,WeatherDisplay:10.37,2013-05-28 01:51:00,
2013-05-27 21:01:00,78.3,69.7,29.64,South,171,8.0,12.0,75,0.00,CLR,SKC,2.05,WeatherDisplay:10.37,2013-05-28 02:01:00,
2013-05-27 21:11:00,78.1,69.5,29.63,SSW,192,2.0,15.0,75,0.00,CLR,SKC,2.05,WeatherDisplay:10.37,2013-05-28 02:11:00,
2013-05-27 21:21:00,77.8,69.3,29.63,SSW,192,12.0,18.0,75,0.00,CLR,SKC,2.05,WeatherDisplay:10.37,2013-05-28 02:21:00,
2013-05-27 21:31:00,77.7,69.5,29.63,SSW,200,1.0,13.0,76,0.00,CLR,SKC,2.05,WeatherDisplay:10.37,2013-05-28 02:31:00,
2013-05-27 21:41:00,77.5,69.4,29.65,South,187,6.0,13.0,76,0.00,CLR,SKC,2.05,WeatherDisplay:10.37,2013-05-28 02:41:00,
2013-05-27 21:51:00,77.4,69.3,29.66,South,189,1.0,13.0,76,0.00,CLR,SKC,2.05,WeatherDisplay:10.37,2013-05-28 02:51:00,
2013-05-27 22:01:00,77.3,69.2,29.66,South,188,1.0,5.0,76,0.00,CLR,SKC,2.05,WeatherDisplay:10.37,2013-05-28 03:01:00,
2013-05-27 22:06:00,77.3,69.2,29.67,SSE,162,2.0,10.0,76,0.00,CLR,SKC,2.05,WeatherDisplay:10.37,2013-05-28 03:06:00,
2013-05-27 22:11:00,77.3,69.2,29.67,South,176,5.0,15.0,76,0.00,CLR,SKC,2.05,WeatherDisplay:10.37,2013-05-28 03:11:00,
2013-05-27 22:16:00,77.3,68.8,29.67,SSW,210,8.0,18.0,75,0.00,CLR,SKC,2.05,WeatherDisplay:10.37,2013-05-28 03:16:00,
2013-05-27 22:21:00,77.3,68.8,29.67,South,189,8.0,18.0,75,0.00,CLR,SKC,2.05,WeatherDisplay:10.37,2013-05-28 03:21:00,
2013-05-27 22:31:00,77.3,68.8,29.67,South,178,6.0,18.0,75,0.00,CLR,SKC,2.05,WeatherDisplay:10.37,2013-05-28 03:31:00,
2013-05-27 22:41:00,77.2,68.7,29.68,SSE,158,7.0,18.0,75,0.00,CLR,SKC,2.05,WeatherDisplay:10.37,2013-05-28 03:41:00,
2013-05-27 22:46:00,77.1,68.6,29.68,South,186,6.0,12.0,75,0.00,CLR,SKC,2.05,WeatherDisplay:10.37,2013-05-28 03:46:00,
2013-05-27 22:51:00,77.1,68.6,29.68,SW,214,9.0,16.0,75,0.00,CLR,SKC,2.05,WeatherDisplay:10.37,2013-05-28 03:51:00,
2013-05-27 22:56:00,77.1,68.2,29.68,South,181,12.0,16.0,74,0.00,CLR,SKC,2.05,WeatherDisplay:10.37,2013-05-28 03:56:00,
2013-05-27 23:01:00,77.2,68.3,29.67,South,179,12.0,18.0,74,0.00,CLR,SKC,2.05,WeatherDisplay:10.37,2013-05-28 04:01:00,
2013-05-27 23:06:00,77.2,68.3,29.66,South,187,8.0,19.0,74,0.00,CLR,SKC,2.05,WeatherDisplay:10.37,2013-05-28 04:06:00,
2013-05-27 23:11:00,77.1,68.2,29.65,South,175,8.0,18.0,74,0.00,CLR,SKC,2.05,WeatherDisplay:10.37,2013-05-28 04:11:00,
2013-05-27 23:16:00,77.1,68.1,29.65,SW,222,10.0,20.0,74,0.00,CLR,SKC,2.05,WeatherDisplay:10.37,2013-05-28 04:16:00,
2013-05-27 23:21:00,77.0,68.1,29.66,SSW,206,7.0,22.0,74,0.00,CLR,SKC,2.05,WeatherDisplay:10.37,2013-05-28 04:21:00,
2013-05-27 23:31:00,76.9,68.0,29.65,South,184,7.0,22.0,74,0.00,CLR,SKC,2.05,WeatherDisplay:10.37,2013-05-28 04:31:00,
2013-05-27 23:36:00,76.8,67.9,29.65,South,191,9.0,20.0,74,0.00,CLR,SKC,2.05,WeatherDisplay:10.37,2013-05-28 04:36:00,
2013-05-27 23:41:00,76.7,68.2,29.64,South,186,8.0,20.0,75,0.00,CLR,SKC,2.05,WeatherDisplay:10.37,2013-05-28 04:41:00,
2013-05-27 23:51:00,76.5,68.0,29.63,SSW,213,7.0,16.0,75,0.00,CLR,SKC,2.05,WeatherDisplay:10.37,2013-05-28 04:51:00,